Fredericton, New Brunswick

8:15 AM ADT on May 20, 2018 (GMT -0300)
Greater Fredericton Airport

Weather History for CYFC - October, 2012

Change the Weather History Date:

Monday, October 8, 2012

  Actual Average Record
Temperature  
Mean Temperature 46 °F -  
Max Temperature 54 °F 52 °F 75 °F (2011)
Min Temperature 33 °F 33 °F 26 °F (1999)
Degree Days  
Heating Degree Days 20    
Moisture  
Dew Point 37 °F    
Average Humidity 71    
Maximum Humidity 100    
Minimum Humidity 36    
Precipitation  
Precipitation 0.16 in 0.13 in - ()
Sea Level Pressure  
Sea Level Pressure 30.11 in    
Wind  
Wind Speed 5 mph ()    
Max Wind Speed 13 mph    
Max Gust Speed 24 mph    
Visibility 8.5 miles    
Events Rain    
Averages and records for this station are not official NWS values.
T = Trace of Precipitation, MM = Missing Value Source: Averaged Metar Reports

Daily Weather History Graph

Daily Weather History Graph

Search for Another Location

Airport or City:

Astronomy

Oct. 08, 2012 Rise Set
Actual Time 7:34 AM ADT 6:52 PM ADT
Civil Twilight 7:04 AM ADT 7:21 PM ADT
Nautical Twilight 6:29 AM ADT 7:56 PM ADT
Astronomical Twilight 5:54 AM ADT 8:31 PM ADT
Moon No Moon Rise 2:58 PM ADT (10/8)
Length of Visible Light 12h 17m
Length of Day
11h 18m
Waning Gibbous, 47% of the Moon is Illuminated
Oct 8
Waning Gibbous
Oct 15
New
Oct 22
First Quarter
Oct 29
Full
Nov 6
Last Quarter

Hourly Weather History & Observations

Time (ADT) Temp. Windchill Dew Point Humidity Pressure Visibility Wind Dir Wind Speed Gust Speed Precip Events Conditions
12:00 AM 44.6 °F 43.1 °F - N/A% 30.02 in 9.0 mi South 3.5 mph - N/A   Overcast
1:00 AM 46.4 °F 45.2 °F 46.4 °F 100% 30.01 in 9.0 mi NW 3.5 mph - N/A   Overcast
1:53 AM 46.4 °F - - N/A% 30.01 in 9.0 mi Calm Calm - N/A Rain Light Rain
2:00 AM 46.4 °F - - N/A% 30.01 in 9.0 mi Variable 2.3 mph - N/A Rain Light Rain
3:00 AM 46 °F - - % 30.03 in 6 mi WNW 5.8 mph - -   Overcast
3:00 AM 46.4 °F 43.5 °F - N/A% 30.03 in 6.0 mi WNW 5.8 mph - N/A Rain Light Rain
3:01 AM 46.4 °F 43.5 °F - N/A% 30.03 in 5.0 mi NW 5.8 mph - N/A Rain Light Rain
3:17 AM 46.4 °F 45.2 °F - N/A% 30.03 in 6.0 mi WNW 3.5 mph - N/A Rain Light Rain
3:34 AM 46.4 °F 44.3 °F - N/A% 30.02 in 5.0 mi NW 4.6 mph - N/A Rain Light Rain
3:45 AM 46.4 °F 43.5 °F - N/A% 30.03 in 6.0 mi NW 5.8 mph - N/A Rain Light Rain
4:00 AM 46.4 °F 44.3 °F - N/A% 30.02 in 6.0 mi NNW 4.6 mph - N/A Rain Light Rain
5:00 AM 44.6 °F 43.1 °F - N/A% 30.02 in 9.0 mi NNW 3.5 mph - N/A Rain Light Rain
5:53 AM 44.6 °F 41.4 °F - N/A% 30.02 in 9.0 mi WNW 5.8 mph - N/A   Overcast
6:00 AM 44.6 °F 41.4 °F - N/A% 30.03 in 9.0 mi WNW 5.8 mph - N/A   Overcast
6:14 AM 42.8 °F 39.3 °F - N/A% 30.04 in 9.0 mi WNW 5.8 mph - N/A Rain Light Rain
6:32 AM 42.8 °F 38.0 °F - N/A% 30.04 in 9.0 mi NW 8.1 mph - N/A Rain Light Rain
6:40 AM 42.8 °F 40.1 °F - N/A% 30.05 in 9.0 mi West 4.6 mph - N/A Rain Light Rain
6:59 AM 42.8 °F 36.2 °F - N/A% 30.06 in 7.0 mi WNW 12.7 mph 20.7 mph N/A Rain Light Rain
7:00 AM 42.8 °F 36.2 °F - N/A% 30.06 in 7.0 mi WNW 12.7 mph 20.7 mph N/A Rain Light Rain
7:02 AM 42.8 °F 37.0 °F - N/A% 30.06 in 7.0 mi WNW 10.4 mph 20.7 mph N/A Rain Light Rain
7:28 AM 41.0 °F 35.2 °F - N/A% 30.07 in 9.0 mi NW 9.2 mph - N/A Rain Light Rain
8:00 AM 41.0 °F 38.0 °F - N/A% 30.06 in 9.0 mi NNW 4.6 mph - N/A Rain Light Rain
8:17 AM 41.0 °F 37.1 °F - N/A% 30.05 in 9.0 mi North 5.8 mph - N/A   Overcast
8:25 AM 41.0 °F 38.0 °F - N/A% 30.05 in 9.0 mi North 4.6 mph - N/A   Overcast
9:00 AM 41 °F - - % 30.08 in 10 mi West 5.8 mph - -  
9:00 AM 41.0 °F 37.1 °F - N/A% 30.08 in 9.0 mi West 5.8 mph - N/A   Mostly Cloudy
10:00 AM 42.8 °F 39.3 °F 41.0 °F 93% 30.10 in 9.0 mi West 5.8 mph - N/A   Overcast
10:23 AM 42.8 °F 38.6 °F 41.0 °F 93% 30.11 in 9.0 mi WNW 6.9 mph - N/A   Overcast
11:00 AM 44.6 °F 39.7 °F 41.0 °F 87% 30.11 in 9.0 mi West 9.2 mph - N/A   Overcast
12:00 PM 44.6 °F 39.7 °F 39.2 °F 81% 30.13 in 9.0 mi WNW 9.2 mph - N/A   Overcast
12:36 PM 46.4 °F 42.9 °F 39.2 °F 76% 30.12 in 9.0 mi West 6.9 mph - N/A   Mostly Cloudy
12:43 PM 48.2 °F - 39.2 °F 71% 30.12 in 9.0 mi West 9.2 mph - N/A   Mostly Cloudy
12:54 PM 48.2 °F - 39.2 °F 71% 30.13 in 9.0 mi WNW 6.9 mph - N/A   Mostly Cloudy
12:55 PM 48.2 °F - 39.2 °F 71% 30.13 in 9.0 mi WNW 6.9 mph - N/A   Mostly Cloudy
12:57 PM 48.2 °F - 39.2 °F 71% 30.13 in 9.0 mi West 6.9 mph - N/A   Mostly Cloudy
1:00 PM 48.2 °F - 37.4 °F 66% 30.13 in 9.0 mi West 10.4 mph - N/A   Mostly Cloudy
2:00 PM 50.0 °F - 35.6 °F 58% 30.14 in 9.0 mi West 8.1 mph 18.4 mph N/A   Partly Cloudy
3:00 PM 53 °F - 34 °F 36% 30.16 in 10 mi WNW 9.2 mph - -  
3:00 PM 53.6 °F - 33.8 °F 47% 30.16 in 9.0 mi WNW 11.5 mph 21.9 mph N/A   Mostly Cloudy
4:00 PM 50.0 °F - 33.8 °F 54% 30.18 in 9.0 mi NW 8.1 mph - N/A   Overcast
5:00 PM 50.0 °F - 32.0 °F 50% 30.18 in 9.0 mi WNW 8.1 mph 18.4 mph N/A   Clear
6:00 PM 50.0 °F - 33.8 °F 54% 30.22 in 9.0 mi West 3.5 mph - N/A   Scattered Clouds
7:00 PM 44.6 °F 42.2 °F 33.8 °F 66% 30.25 in 9.0 mi WSW 4.6 mph 24.2 mph N/A   Clear
8:00 PM 41.0 °F 37.1 °F 35.6 °F 81% 30.28 in 9.0 mi SW 5.8 mph - N/A   Clear
9:00 PM 39 °F - 34 °F 74% 30.30 in 10 mi WNW 3.5 mph - -  
9:00 PM 39.2 °F 37.0 °F 33.8 °F 81% 30.30 in 9.0 mi West 3.5 mph - N/A   Clear
10:00 PM 37.4 °F - 33.8 °F 87% 30.32 in 9.0 mi Variable 2.3 mph - N/A   Clear
11:00 PM 33.8 °F 30.8 °F - N/A% 30.37 in 9.0 mi SSW 3.5 mph - N/A   Clear